Time,TemperatureF,DewpointF,PressureIn,WindDirection,WindDirectionDegrees,WindSpeedMPH,WindSpeedGustMPH,Humidity,HourlyPrecipIn,Conditions,Clouds,dailyrainin,SoftwareType,DateUTC
2013-04-24 00:01:00,53.4,38.9,30.02,South,180,0.0,0.0,58,0.00,,,0.00,WUHU216HW,2013-04-24 04:01:00,
2013-04-24 00:07:00,53.2,38.8,30.01,South,180,0.0,0.0,58,0.00,,,0.00,WUHU216HW,2013-04-24 04:07:00,
2013-04-24 00:13:00,52.8,38.4,30.01,South,180,0.0,0.0,58,0.00,,,0.00,WUHU216HW,2013-04-24 04:13:00,
2013-04-24 00:18:00,52.7,38.2,30.01,South,180,0.0,0.0,58,0.00,,,0.00,WUHU216HW,2013-04-24 04:18:00,
2013-04-24 00:24:00,52.3,38.3,30.01,South,180,0.0,0.0,59,0.00,,,0.00,WUHU216HW,2013-04-24 04:24:00,
2013-04-24 00:29:00,52.3,38.3,30.01,South,180,0.0,0.0,59,0.00,,,0.00,WUHU216HW,2013-04-24 04:29:00,
2013-04-24 00:34:00,51.9,38.4,30.00,South,180,0.0,0.0,60,0.00,,,0.00,WUHU216HW,2013-04-24 04:34:00,
2013-04-24 00:40:00,51.8,38.1,30.00,South,180,0.0,0.0,60,0.00,,,0.00,WUHU216HW,2013-04-24 04:40:00,
2013-04-24 00:45:00,51.6,38.1,30.00,South,180,0.0,0.0,60,0.00,,,0.00,WUHU216HW,2013-04-24 04:45:00,
2013-04-24 00:50:00,51.4,38.3,30.00,South,180,0.0,0.0,61,0.00,,,0.00,WUHU216HW,2013-04-24 04:50:00,
2013-04-24 00:55:00,51.2,38.6,30.00,South,180,0.0,0.0,62,0.00,,,0.00,WUHU216HW,2013-04-24 04:55:00,
2013-04-24 01:01:00,51.0,38.0,29.99,South,180,0.0,0.0,61,0.00,,,0.00,WUHU216HW,2013-04-24 05:01:00,
2013-04-24 01:07:00,50.9,38.3,29.99,South,180,0.0,0.0,62,0.00,,,0.00,WUHU216HW,2013-04-24 05:07:00,
2013-04-24 01:12:00,50.7,38.1,29.99,South,180,0.0,0.0,62,0.00,,,0.00,WUHU216HW,2013-04-24 05:12:00,
2013-04-24 01:18:00,50.5,38.3,29.99,South,180,0.0,0.0,63,0.00,,,0.00,WUHU216HW,2013-04-24 05:18:00,
2013-04-24 01:23:00,50.3,38.1,29.99,South,180,0.0,0.0,63,0.00,,,0.00,WUHU216HW,2013-04-24 05:23:00,
2013-04-24 01:28:00,50.3,38.1,29.99,South,180,0.0,0.0,63,0.00,,,0.00,WUHU216HW,2013-04-24 05:28:00,
2013-04-24 01:34:00,50.1,38.4,29.99,South,180,0.0,0.0,64,0.00,,,0.00,WUHU216HW,2013-04-24 05:34:00,
2013-04-24 01:39:00,49.8,38.0,29.98,South,180,0.0,0.0,64,0.00,,,0.00,WUHU216HW,2013-04-24 05:39:00,
2013-04-24 01:44:00,49.8,38.0,29.98,South,180,0.0,0.0,64,0.00,,,0.00,WUHU216HW,2013-04-24 05:44:00,
2013-04-24 01:50:00,49.6,38.3,29.98,South,180,0.0,0.0,65,0.00,,,0.00,WUHU216HW,2013-04-24 05:50:00,
2013-04-24 01:55:00,49.4,38.1,29.98,South,180,0.0,0.0,65,0.00,,,0.00,WUHU216HW,2013-04-24 05:55:00,
2013-04-24 02:00:00,49.2,37.9,29.97,South,180,0.0,0.0,65,0.00,,,0.00,WUHU216HW,2013-04-24 06:00:00,
2013-04-24 02:05:00,49.1,37.7,29.98,South,180,0.0,0.0,65,0.00,,,0.00,WUHU216HW,2013-04-24 06:05:00,
2013-04-24 02:10:00,48.9,38.0,29.98,South,180,0.0,0.0,66,0.00,,,0.00,WUHU216HW,2013-04-24 06:10:00,
2013-04-24 02:15:00,48.7,37.8,29.97,South,180,0.0,0.0,66,0.00,,,0.00,WUHU216HW,2013-04-24 06:15:00,
2013-04-24 02:21:00,48.7,37.8,29.97,South,180,0.0,0.0,66,0.00,,,0.00,WUHU216HW,2013-04-24 06:21:00,
2013-04-24 02:26:00,48.5,37.6,29.97,South,180,0.0,0.0,66,0.00,,,0.00,WUHU216HW,2013-04-24 06:26:00,
2013-04-24 02:32:00,48.2,37.7,29.97,South,180,0.0,0.0,67,0.00,,,0.00,WUHU216HW,2013-04-24 06:32:00,
2013-04-24 02:37:00,48.0,37.5,29.96,South,180,0.0,0.0,67,0.00,,,0.00,WUHU216HW,2013-04-24 06:37:00,
2013-04-24 02:43:00,47.8,37.3,29.96,South,180,0.0,0.0,67,0.00,,,0.00,WUHU216HW,2013-04-24 06:43:00,
2013-04-24 02:48:00,47.8,37.7,29.96,South,180,0.0,0.0,68,0.00,,,0.00,WUHU216HW,2013-04-24 06:48:00,
2013-04-24 02:54:00,47.6,37.5,29.97,South,180,0.0,0.0,68,0.00,,,0.00,WUHU216HW,2013-04-24 06:54:00,
2013-04-24 02:59:00,47.4,37.4,29.96,South,180,0.0,0.0,68,0.00,,,0.00,WUHU216HW,2013-04-24 06:59:00,
2013-04-24 03:05:00,47.3,37.6,29.97,South,180,0.0,0.0,69,0.00,,,0.00,WUHU216HW,2013-04-24 07:05:00,
2013-04-24 03:11:00,47.1,37.4,29.96,South,180,0.0,0.0,69,0.00,,,0.00,WUHU216HW,2013-04-24 07:11:00,
2013-04-24 03:17:00,46.9,37.3,29.96,South,180,0.0,0.0,69,0.00,,,0.00,WUHU216HW,2013-04-24 07:17:00,
2013-04-24 03:22:00,46.7,37.1,29.96,South,180,0.0,0.0,69,0.00,,,0.00,WUHU216HW,2013-04-24 07:22:00,
2013-04-24 03:27:00,46.5,36.9,29.96,South,180,0.0,0.0,69,0.00,,,0.00,WUHU216HW,2013-04-24 07:27:00,
2013-04-24 03:32:00,46.4,37.2,29.96,South,180,0.0,0.0,70,0.00,,,0.00,WUHU216HW,2013-04-24 07:32:00,
2013-04-24 03:38:00,46.2,37.0,29.96,South,180,0.0,0.0,70,0.00,,,0.00,WUHU216HW,2013-04-24 07:38:00,
2013-04-24 03:43:00,46.0,36.8,29.96,South,180,0.0,0.0,70,0.00,,,0.00,WUHU216HW,2013-04-24 07:43:00,
2013-04-24 03:49:00,46.0,37.2,29.96,South,180,0.0,0.0,71,0.00,,,0.00,WUHU216HW,2013-04-24 07:49:00,
2013-04-24 03:55:00,45.8,37.0,29.97,South,180,0.0,0.0,71,0.00,,,0.00,WUHU216HW,2013-04-24 07:55:00,
2013-04-24 04:01:00,45.6,36.8,29.97,South,180,0.0,0.0,71,0.00,,,0.00,WUHU216HW,2013-04-24 08:01:00,
2013-04-24 04:07:00,45.6,37.1,29.97,South,180,0.0,0.0,72,0.00,,,0.00,WUHU216HW,2013-04-24 08:07:00,
2013-04-24 04:12:00,45.6,37.1,29.97,South,180,0.0,0.0,72,0.00,,,0.00,WUHU216HW,2013-04-24 08:12:00,
2013-04-24 04:18:00,45.6,37.1,29.96,South,180,0.0,0.0,72,0.00,,,0.00,WUHU216HW,2013-04-24 08:18:00,
2013-04-24 04:23:00,45.6,37.1,29.97,South,180,0.0,0.0,72,0.00,,,0.00,WUHU216HW,2013-04-24 08:23:00,
2013-04-24 04:29:00,45.6,37.5,29.96,South,180,0.0,0.0,73,0.00,,,0.00,WUHU216HW,2013-04-24 08:29:00,
2013-04-24 04:34:00,45.6,37.5,29.96,South,180,0.0,0.0,73,0.00,,,0.00,WUHU216HW,2013-04-24 08:34:00,
2013-04-24 04:39:00,45.6,37.5,29.96,South,180,0.0,0.0,73,0.00,,,0.00,WUHU216HW,2013-04-24 08:39:00,
2013-04-24 04:45:00,45.6,37.5,29.96,South,180,0.0,0.0,73,0.00,,,0.00,WUHU216HW,2013-04-24 08:45:00,
2013-04-24 04:51:00,45.6,37.5,29.96,South,180,0.0,0.0,73,0.00,,,0.00,WUHU216HW,2013-04-24 08:51:00,
2013-04-24 04:56:00,45.6,37.5,29.96,South,180,0.0,0.0,73,0.00,,,0.00,WUHU216HW,2013-04-24 08:56:00,
2013-04-24 05:01:00,45.6,37.8,29.96,South,180,0.0,0.0,74,0.00,,,0.00,WUHU216HW,2013-04-24 09:01:00,
2013-04-24 05:07:00,45.6,37.8,29.96,South,180,0.0,0.0,74,0.00,,,0.00,WUHU216HW,2013-04-24 09:07:00,
2013-04-24 05:12:00,46.0,38.2,29.97,South,180,0.0,0.0,74,0.00,,,0.00,WUHU216HW,2013-04-24 09:12:00,
2013-04-24 05:18:00,46.0,38.2,29.96,South,180,0.0,0.0,74,0.00,,,0.00,WUHU216HW,2013-04-24 09:18:00,
2013-04-24 05:24:00,46.0,38.2,29.96,South,180,0.0,0.0,74,0.00,,,0.00,WUHU216HW,2013-04-24 09:24:00,
2013-04-24 05:29:00,46.0,38.5,29.96,South,180,0.0,0.0,75,0.00,,,0.00,WUHU216HW,2013-04-24 09:29:00,
2013-04-24 05:35:00,46.0,38.5,29.96,South,180,0.0,0.0,75,0.00,,,0.00,WUHU216HW,2013-04-24 09:35:00,
2013-04-24 05:41:00,46.0,38.5,29.96,South,180,0.0,0.0,75,0.00,,,0.00,WUHU216HW,2013-04-24 09:41:00,
2013-04-24 05:47:00,46.0,38.5,29.96,South,180,0.0,0.0,75,0.00,,,0.00,WUHU216HW,2013-04-24 09:47:00,
2013-04-24 05:52:00,46.0,38.5,29.96,South,180,0.0,0.0,75,0.00,,,0.00,WUHU216HW,2013-04-24 09:52:00,
2013-04-24 05:58:00,46.2,38.7,29.96,South,180,0.0,0.0,75,0.00,,,0.00,WUHU216HW,2013-04-24 09:58:00,
2013-04-24 06:04:00,46.2,39.0,29.96,South,180,0.0,0.0,76,0.00,,,0.00,WUHU216HW,2013-04-24 10:04:00,
2013-04-24 06:09:00,46.2,39.0,29.96,South,180,0.0,0.0,76,0.00,,,0.00,WUHU216HW,2013-04-24 10:09:00,
2013-04-24 06:15:00,46.2,39.0,29.96,South,180,0.0,0.0,76,0.00,,,0.00,WUHU216HW,2013-04-24 10:15:00,
2013-04-24 06:20:00,46.2,39.0,29.95,South,180,0.0,0.0,76,0.00,,,0.00,WUHU216HW,2013-04-24 10:20:00,
2013-04-24 06:26:00,46.2,39.0,29.95,South,180,0.0,0.0,76,0.00,,,0.00,WUHU216HW,2013-04-24 10:26:00,
2013-04-24 06:32:00,46.2,39.0,29.95,South,180,0.0,0.0,76,0.00,,,0.00,WUHU216HW,2013-04-24 10:32:00,
2013-04-24 06:37:00,46.0,39.2,29.95,South,180,0.0,0.0,77,0.00,,,0.00,WUHU216HW,2013-04-24 10:37:00,
2013-04-24 06:43:00,46.2,39.4,29.95,South,180,0.0,0.0,77,0.00,,,0.00,WUHU216HW,2013-04-24 10:43:00,
2013-04-24 06:48:00,46.2,40.1,29.94,South,180,0.0,0.0,78,0.00,,,0.00,WUHU216HW,2013-04-24 10:48:00,
2013-04-24 06:54:00,46.5,40.1,29.94,South,180,0.0,0.0,78,0.00,,,0.00,WUHU216HW,2013-04-24 10:54:00,
2013-04-24 07:00:00,47.1,40.9,29.94,ENE,68,0.0,0.0,79,0.00,,,0.00,WUHU216HW,2013-04-24 11:00:00,
2013-04-24 07:06:00,48.0,42.0,29.94,ENE,68,0.0,0.0,80,0.00,,,0.00,WUHU216HW,2013-04-24 11:06:00,
2013-04-24 07:17:00,50.1,44.2,29.94,ENE,68,0.0,0.0,80,0.00,,,0.00,WUHU216HW,2013-04-24 11:17:00,
2013-04-24 07:23:00,51.9,45.6,29.94,North,0,0.0,0.0,79,0.00,,,0.00,WUHU216HW,2013-04-24 11:23:00,
2013-04-24 07:28:00,53.2,46.2,29.94,ESE,113,0.0,0.0,77,0.00,,,0.00,WUHU216HW,2013-04-24 11:28:00,
2013-04-24 07:34:00,54.5,47.0,29.94,ENE,68,0.0,0.0,76,0.00,,,0.00,WUHU216HW,2013-04-24 11:34:00,
2013-04-24 07:40:00,55.4,47.2,29.94,ESE,113,0.0,0.0,74,0.00,,,0.00,WUHU216HW,2013-04-24 11:40:00,
2013-04-24 07:45:00,56.1,47.5,29.93,NW,315,0.0,0.0,73,0.00,,,0.00,WUHU216HW,2013-04-24 11:45:00,
2013-04-24 07:51:00,56.8,47.4,29.93,ENE,68,0.0,0.0,71,0.00,,,0.00,WUHU216HW,2013-04-24 11:51:00,
2013-04-24 07:57:00,57.5,47.8,29.93,NE,45,0.0,9.6,70,0.00,,,0.00,WUHU216HW,2013-04-24 11:57:00,
2013-04-24 08:02:00,57.9,47.7,29.93,ESE,113,0.0,9.6,69,0.00,,,0.00,WUHU216HW,2013-04-24 12:02:00,
2013-04-24 08:08:00,58.6,48.0,29.93,East,90,0.0,0.0,68,0.00,,,0.00,WUHU216HW,2013-04-24 12:08:00,
2013-04-24 08:14:00,58.8,48.2,29.93,ESE,113,0.0,1.7,68,0.00,,,0.00,WUHU216HW,2013-04-24 12:14:00,
2013-04-24 08:20:00,59.7,48.7,29.93,ENE,68,0.0,1.7,67,0.00,,,0.00,WUHU216HW,2013-04-24 12:20:00,
2013-04-24 08:25:00,60.4,49.0,29.92,SE,135,0.0,1.7,66,0.00,,,0.00,WUHU216HW,2013-04-24 12:25:00,
2013-04-24 08:30:00,60.4,49.0,29.92,NE,45,0.0,1.7,66,0.00,,,0.00,WUHU216HW,2013-04-24 12:30:00,
2013-04-24 08:36:00,60.9,49.1,29.92,West,270,0.0,0.0,65,0.00,,,0.00,WUHU216HW,2013-04-24 12:36:00,
2013-04-24 08:41:00,61.5,49.2,29.92,South,180,2.9,2.9,64,0.00,,,0.00,WUHU216HW,2013-04-24 12:41:00,
2013-04-24 08:46:00,62.7,49.9,29.92,ESE,113,0.0,2.9,63,0.00,,,0.00,WUHU216HW,2013-04-24 12:46:00,
2013-04-24 08:52:00,64.0,51.1,29.92,South,180,0.0,0.0,63,0.00,,,0.00,WUHU216HW,2013-04-24 12:52:00,
2013-04-24 08:57:00,65.1,51.3,29.92,SE,135,0.0,0.0,61,0.00,,,0.00,WUHU216HW,2013-04-24 12:57:00,
2013-04-24 09:03:00,65.4,50.7,29.92,SE,135,0.0,0.0,60,0.00,,,0.00,WUHU216HW,2013-04-24 13:03:00,
2013-04-24 09:09:00,65.6,50.9,29.91,East,90,0.0,0.0,59,0.00,,,0.00,WUHU216HW,2013-04-24 13:09:00,
2013-04-24 09:14:00,66.9,52.1,29.91,NNE,23,0.0,0.0,59,0.00,,,0.00,WUHU216HW,2013-04-24 13:14:00,
2013-04-24 09:19:00,67.8,52.4,29.90,ESE,113,0.0,0.0,58,0.00,,,0.00,WUHU216HW,2013-04-24 13:19:00,
2013-04-24 09:25:00,68.7,52.3,29.90,SE,135,0.0,0.0,56,0.00,,,0.00,WUHU216HW,2013-04-24 13:25:00,
2013-04-24 09:30:00,68.7,51.8,29.90,SE,135,0.0,3.8,55,0.00,,,0.00,WUHU216HW,2013-04-24 13:30:00,
2013-04-24 09:35:00,69.0,52.1,29.90,NW,315,0.0,5.1,55,0.00,,,0.00,WUHU216HW,2013-04-24 13:35:00,
2013-04-24 09:40:00,69.6,52.7,29.90,SE,135,0.0,5.1,55,0.00,,,0.00,WUHU216HW,2013-04-24 13:40:00,
2013-04-24 09:45:00,70.1,53.2,29.90,SE,135,5.8,5.8,55,0.00,,,0.00,WUHU216HW,2013-04-24 13:45:00,
2013-04-24 09:50:00,70.3,52.8,29.90,SSW,203,0.0,5.8,54,0.00,,,0.00,WUHU216HW,2013-04-24 13:50:00,
2013-04-24 09:56:00,70.1,52.7,29.90,South,180,6.9,6.9,54,0.00,,,0.00,WUHU216HW,2013-04-24 13:56:00,
2013-04-24 10:02:00,70.5,53.0,29.90,WNW,293,0.0,6.9,54,0.00,,,0.00,WUHU216HW,2013-04-24 14:02:00,
2013-04-24 10:08:00,71.0,53.5,29.90,ESE,113,0.0,0.0,54,0.00,,,0.00,WUHU216HW,2013-04-24 14:08:00,
2013-04-24 10:14:00,72.3,54.6,29.90,WNW,293,0.0,0.0,54,0.00,,,0.00,WUHU216HW,2013-04-24 14:14:00,
2013-04-24 10:20:00,73.2,54.4,29.90,NW,315,5.1,5.1,52,0.00,,,0.00,WUHU216HW,2013-04-24 14:20:00,
2013-04-24 10:25:00,73.7,54.4,29.89,South,180,0.0,5.1,51,0.00,,,0.00,WUHU216HW,2013-04-24 14:25:00,
2013-04-24 10:30:00,74.4,55.1,29.89,NNE,23,0.0,5.1,51,0.00,,,0.00,WUHU216HW,2013-04-24 14:30:00,
2013-04-24 10:36:00,75.3,55.5,29.89,NE,45,0.0,0.0,50,0.00,,,0.00,WUHU216HW,2013-04-24 14:36:00,
2013-04-24 10:42:00,75.7,55.2,29.88,WSW,248,0.0,8.2,49,0.00,,,0.00,WUHU216HW,2013-04-24 14:42:00,
2013-04-24 10:48:00,76.2,56.3,29.88,SE,135,0.0,8.2,50,0.00,,,0.00,WUHU216HW,2013-04-24 14:48:00,
2013-04-24 10:53:00,76.8,56.2,29.88,NNE,23,0.0,5.1,49,0.00,,,0.00,WUHU216HW,2013-04-24 14:53:00,
2013-04-24 10:58:00,76.8,56.2,29.87,South,180,0.0,0.0,49,0.00,,,0.00,WUHU216HW,2013-04-24 14:58:00,
2013-04-24 11:04:00,77.3,56.7,29.87,NNW,338,0.0,0.0,49,0.00,,,0.00,WUHU216HW,2013-04-24 15:04:00,
2013-04-24 11:10:00,77.7,56.4,29.87,NW,315,0.0,0.0,48,0.00,,,0.00,WUHU216HW,2013-04-24 15:10:00,
2013-04-24 11:16:00,77.9,56.6,29.87,SE,135,0.0,0.0,48,0.00,,,0.00,WUHU216HW,2013-04-24 15:16:00,
2013-04-24 11:21:00,78.0,56.7,29.87,ENE,68,0.0,0.0,48,0.00,,,0.00,WUHU216HW,2013-04-24 15:21:00,
2013-04-24 11:27:00,78.0,56.7,29.87,SW,225,0.0,0.0,48,0.00,,,0.00,WUHU216HW,2013-04-24 15:27:00,
2013-04-24 11:32:00,78.0,56.7,29.87,West,270,0.0,0.0,48,0.00,,,0.00,WUHU216HW,2013-04-24 15:32:00,
2013-04-24 11:37:00,78.0,56.7,29.87,NE,45,0.0,0.0,48,0.00,,,0.00,WUHU216HW,2013-04-24 15:37:00,
2013-04-24 11:43:00,78.6,57.2,29.87,SW,225,0.0,0.0,48,0.00,,,0.00,WUHU216HW,2013-04-24 15:43:00,
2013-04-24 11:48:00,78.9,57.5,29.87,WSW,248,2.6,2.6,48,0.00,,,0.00,WUHU216HW,2013-04-24 15:48:00,
2013-04-24 11:54:00,78.9,57.5,29.87,West,270,0.0,2.6,48,0.00,,,0.00,WUHU216HW,2013-04-24 15:54:00,
2013-04-24 11:59:00,78.6,56.6,29.87,South,180,0.0,2.6,47,0.00,,,0.00,WUHU216HW,2013-04-24 15:59:00,
2013-04-24 12:05:00,78.0,56.7,29.86,WSW,248,0.0,6.7,48,0.00,,,0.00,WUHU216HW,2013-04-24 16:05:00,
2013-04-24 12:10:00,77.9,56.6,29.86,SSW,203,0.0,6.7,48,0.00,,,0.00,WUHU216HW,2013-04-24 16:10:00,
2013-04-24 12:15:00,77.7,57.0,29.85,SE,135,0.0,0.0,49,0.00,,,0.00,WUHU216HW,2013-04-24 16:15:00,
2013-04-24 12:21:00,78.4,57.0,29.84,SSE,158,0.0,0.0,48,0.00,,,0.00,WUHU216HW,2013-04-24 16:21:00,
2013-04-24 12:27:00,78.4,57.0,29.84,SW,225,0.0,0.0,48,0.00,,,0.00,WUHU216HW,2013-04-24 16:27:00,
2013-04-24 12:33:00,77.7,56.4,29.84,WNW,293,0.0,0.0,48,0.00,,,0.00,WUHU216HW,2013-04-24 16:33:00,
2013-04-24 12:38:00,77.5,56.8,29.84,SSE,158,0.0,0.0,49,0.00,,,0.00,WUHU216HW,2013-04-24 16:38:00,
2013-04-24 12:43:00,77.1,56.5,29.84,WNW,293,0.0,0.0,49,0.00,,,0.00,WUHU216HW,2013-04-24 16:43:00,
2013-04-24 12:49:00,76.6,55.4,29.85,NW,315,0.0,0.0,48,0.00,,,0.00,WUHU216HW,2013-04-24 16:49:00,
2013-04-24 12:54:00,75.9,55.4,29.85,SSW,203,0.0,7.8,49,0.00,,,0.00,WUHU216HW,2013-04-24 16:54:00,
2013-04-24 12:59:00,75.2,55.4,29.84,SW,225,7.1,7.8,50,0.00,,,0.00,WUHU216HW,2013-04-24 16:59:00,
2013-04-24 13:05:00,75.0,55.2,29.84,North,0,0.0,7.1,50,0.00,,,0.00,WUHU216HW,2013-04-24 17:05:00,
2013-04-24 13:10:00,75.5,55.7,29.84,WNW,293,0.0,7.1,50,0.00,,,0.00,WUHU216HW,2013-04-24 17:10:00,
2013-04-24 13:15:00,76.1,56.2,29.84,NNW,338,0.0,0.0,50,0.00,,,0.00,WUHU216HW,2013-04-24 17:15:00,
2013-04-24 13:21:00,76.6,56.6,29.84,WNW,293,0.0,0.0,50,0.00,,,0.00,WUHU216HW,2013-04-24 17:21:00,
2013-04-24 13:26:00,76.4,55.9,29.83,NNW,338,3.5,3.5,49,0.00,,,0.00,WUHU216HW,2013-04-24 17:26:00,
2013-04-24 13:32:00,76.6,57.2,29.83,WSW,248,0.0,3.5,51,0.00,,,0.00,WUHU216HW,2013-04-24 17:32:00,
2013-04-24 13:37:00,76.4,56.3,29.83,NNW,338,0.0,0.0,50,0.00,,,0.00,WUHU216HW,2013-04-24 17:37:00,
2013-04-24 13:43:00,76.1,56.2,29.83,SW,225,0.0,0.0,50,0.00,,,0.00,WUHU216HW,2013-04-24 17:43:00,
2013-04-24 13:48:00,76.1,56.7,29.81,SE,135,0.0,2.4,51,0.00,,,0.00,WUHU216HW,2013-04-24 17:48:00,
2013-04-24 13:53:00,76.2,56.8,29.82,SSW,203,0.0,2.4,51,0.00,,,0.00,WUHU216HW,2013-04-24 17:53:00,
2013-04-24 13:58:00,76.1,56.2,29.82,WSW,248,0.0,0.0,50,0.00,,,0.00,WUHU216HW,2013-04-24 17:58:00,
2013-04-24 14:04:00,75.7,56.3,29.81,NE,45,0.0,0.0,51,0.00,,,0.00,WUHU216HW,2013-04-24 18:04:00,
2013-04-24 14:09:00,75.5,56.2,29.81,South,180,0.0,0.0,51,0.00,,,0.00,WUHU216HW,2013-04-24 18:09:00,
2013-04-24 14:14:00,75.3,56.0,29.82,South,180,0.0,0.0,51,0.00,,,0.00,WUHU216HW,2013-04-24 18:14:00,
2013-04-24 14:20:00,74.4,55.6,29.83,SW,225,0.0,0.0,52,0.00,,,0.00,WUHU216HW,2013-04-24 18:20:00,
2013-04-24 14:26:00,73.7,55.9,29.85,West,270,0.0,0.0,54,0.00,,,0.00,WUHU216HW,2013-04-24 18:26:00,
2013-04-24 14:31:00,70.8,55.8,29.83,NNW,338,1.5,14.9,59,0.00,,,0.00,WUHU216HW,2013-04-24 18:31:00,
2013-04-24 14:37:00,67.8,54.7,29.84,NW,315,6.4,14.9,63,0.00,,,0.00,WUHU216HW,2013-04-24 18:37:00,
2013-04-24 14:43:00,66.3,54.6,29.84,West,270,0.0,8.0,66,0.00,,,0.00,WUHU216HW,2013-04-24 18:43:00,
2013-04-24 14:53:00,63.3,54.1,29.86,NW,315,3.8,11.1,72,0.08,,,0.08,WUHU216HW,2013-04-24 18:53:00,
2013-04-24 14:59:00,61.8,53.4,29.85,NW,315,0.0,11.1,74,0.10,,,0.10,WUHU216HW,2013-04-24 18:59:00,
2013-04-24 15:05:00,61.1,53.2,29.86,West,270,0.0,1.1,75,0.12,,,0.12,WUHU216HW,2013-04-24 19:05:00,
2013-04-24 15:10:00,60.9,53.4,29.86,West,270,0.0,0.0,76,0.14,,,0.14,WUHU216HW,2013-04-24 19:10:00,
2013-04-24 15:15:00,61.1,53.5,29.85,WSW,248,0.0,0.0,76,0.16,,,0.16,WUHU216HW,2013-04-24 19:15:00,
2013-04-24 15:21:00,61.5,54.2,29.85,WSW,248,0.0,0.0,77,0.16,,,0.16,WUHU216HW,2013-04-24 19:21:00,
2013-04-24 15:26:00,61.5,54.2,29.85,WSW,248,0.0,0.0,77,0.16,,,0.16,WUHU216HW,2013-04-24 19:26:00,
2013-04-24 15:31:00,61.7,54.7,29.85,NNW,338,0.0,0.0,78,0.16,,,0.16,WUHU216HW,2013-04-24 19:31:00,
2013-04-24 15:36:00,61.7,55.1,29.84,NNW,338,0.0,0.0,79,0.16,,,0.16,WUHU216HW,2013-04-24 19:36:00,
2013-04-24 15:41:00,61.8,55.2,29.85,NNW,338,0.0,0.0,79,0.16,,,0.16,WUHU216HW,2013-04-24 19:41:00,
2013-04-24 15:47:00,62.2,55.6,29.86,NW,315,0.0,0.0,79,0.16,,,0.16,WUHU216HW,2013-04-24 19:47:00,
2013-04-24 15:52:00,62.4,55.7,29.85,SSW,203,0.0,0.0,79,0.08,,,0.16,WUHU216HW,2013-04-24 19:52:00,
2013-04-24 15:57:00,62.4,55.7,29.84,WNW,293,0.0,0.0,79,0.06,,,0.16,WUHU216HW,2013-04-24 19:57:00,
2013-04-24 16:03:00,62.4,55.7,29.84,East,90,0.0,0.0,79,0.04,,,0.16,WUHU216HW,2013-04-24 20:03:00,
2013-04-24 16:08:00,62.4,55.7,29.84,WSW,248,0.0,5.8,79,0.02,,,0.16,WUHU216HW,2013-04-24 20:08:00,
2013-04-24 16:14:00,62.9,56.3,29.83,WNW,293,2.4,5.8,79,0.00,,,0.16,WUHU216HW,2013-04-24 20:14:00,
2013-04-24 16:20:00,64.0,57.0,29.83,North,0,0.0,3.8,78,0.00,,,0.16,WUHU216HW,2013-04-24 20:20:00,
2013-04-24 16:25:00,64.5,57.5,29.84,SW,225,0.0,4.4,78,0.00,,,0.16,WUHU216HW,2013-04-24 20:25:00,
2013-04-24 16:31:00,65.3,57.1,29.85,NNE,23,2.2,4.4,75,0.00,,,0.16,WUHU216HW,2013-04-24 20:31:00,
2013-04-24 16:37:00,65.3,56.7,29.84,WNW,293,6.9,6.9,74,0.00,,,0.16,WUHU216HW,2013-04-24 20:37:00,
2013-04-24 16:42:00,65.1,56.6,29.85,WNW,293,3.5,6.9,74,0.00,,,0.16,WUHU216HW,2013-04-24 20:42:00,
2013-04-24 16:48:00,64.5,55.7,29.85,SW,225,3.3,12.9,73,0.00,,,0.16,WUHU216HW,2013-04-24 20:48:00,
2013-04-24 16:58:00,63.6,55.2,29.85,SE,135,0.0,8.0,74,0.00,,,0.16,WUHU216HW,2013-04-24 20:58:00,
2013-04-24 17:03:00,63.6,55.2,29.85,ESE,113,6.7,8.0,74,0.00,,,0.16,WUHU216HW,2013-04-24 21:03:00,
2013-04-24 17:08:00,63.6,55.2,29.85,SSW,203,6.7,6.7,74,0.00,,,0.16,WUHU216HW,2013-04-24 21:08:00,
2013-04-24 17:13:00,63.6,55.2,29.86,SE,135,0.0,6.7,74,0.00,,,0.16,WUHU216HW,2013-04-24 21:13:00,
2013-04-24 17:19:00,64.0,55.5,29.86,SW,225,0.0,6.0,74,0.00,,,0.16,WUHU216HW,2013-04-24 21:19:00,
2013-04-24 17:24:00,64.2,55.4,29.85,NNW,338,5.8,6.0,74,0.00,,,0.16,WUHU216HW,2013-04-24 21:24:00,
2013-04-24 17:30:00,64.5,55.7,29.85,SW,225,0.0,5.8,73,0.00,,,0.16,WUHU216HW,2013-04-24 21:30:00,
2013-04-24 17:36:00,64.7,55.9,29.85,West,270,0.0,5.8,73,0.00,,,0.16,WUHU216HW,2013-04-24 21:36:00,
2013-04-24 17:41:00,64.7,55.9,29.85,SSW,203,2.9,2.9,73,0.00,,,0.16,WUHU216HW,2013-04-24 21:41:00,
2013-04-24 17:47:00,65.1,55.8,29.85,SSW,203,7.3,13.1,72,0.00,,,0.16,WUHU216HW,2013-04-24 21:47:00,
2013-04-24 17:53:00,65.4,56.2,29.85,West,270,5.3,13.1,72,0.00,,,0.16,WUHU216HW,2013-04-24 21:53:00,
2013-04-24 17:58:00,65.6,55.9,29.85,WSW,248,0.0,7.8,71,0.00,,,0.16,WUHU216HW,2013-04-24 21:58:00,
2013-04-24 18:04:00,65.6,55.9,29.87,SSW,203,0.0,4.0,71,0.00,,,0.16,WUHU216HW,2013-04-24 22:04:00,
2013-04-24 18:10:00,65.1,55.5,29.88,NW,315,9.3,9.8,71,0.00,,,0.16,WUHU216HW,2013-04-24 22:10:00,
2013-04-24 18:15:00,64.2,54.6,29.91,WSW,248,7.8,14.3,71,0.00,,,0.16,WUHU216HW,2013-04-24 22:15:00,
2013-04-24 18:21:00,60.9,51.9,29.90,WNW,293,8.9,14.3,72,0.00,,,0.16,WUHU216HW,2013-04-24 22:21:00,
2013-04-24 18:27:00,58.6,50.3,29.92,NNW,338,0.0,8.9,74,0.00,,,0.16,WUHU216HW,2013-04-24 22:27:00,
2013-04-24 18:33:00,57.0,49.4,29.93,NW,315,8.5,12.3,76,0.02,,,0.19,WUHU216HW,2013-04-24 22:33:00,
2013-04-24 18:38:00,56.3,48.7,29.94,WNW,293,9.3,12.3,76,0.02,,,0.19,WUHU216HW,2013-04-24 22:38:00,
2013-04-24 18:44:00,55.2,47.7,29.95,NW,315,6.2,9.3,76,0.02,,,0.19,WUHU216HW,2013-04-24 22:44:00,
2013-04-24 18:50:00,53.9,46.5,29.96,West,270,6.9,6.9,76,0.02,,,0.19,WUHU216HW,2013-04-24 22:50:00,
2013-04-24 18:55:00,53.2,45.8,29.97,NW,315,10.9,10.9,76,0.02,,,0.19,WUHU216HW,2013-04-24 22:55:00,
2013-04-24 19:01:00,51.8,44.8,29.97,North,0,5.8,10.9,77,0.02,,,0.19,WUHU216HW,2013-04-24 23:01:00,
2013-04-24 19:07:00,50.9,44.2,29.99,West,270,4.0,6.0,78,0.02,,,0.19,WUHU216HW,2013-04-24 23:07:00,
2013-04-24 19:13:00,50.3,43.7,30.00,WNW,293,10.9,11.6,78,0.02,,,0.19,WUHU216HW,2013-04-24 23:13:00,
2013-04-24 19:19:00,49.2,42.9,30.00,NW,315,6.7,11.6,79,0.02,,,0.19,WUHU216HW,2013-04-24 23:19:00,
2013-04-24 19:24:00,48.7,42.4,30.02,NNW,338,5.8,6.7,79,0.02,,,0.19,WUHU216HW,2013-04-24 23:24:00,
2013-04-24 19:30:00,48.3,42.0,30.02,NW,315,5.5,6.4,79,0.00,,,0.19,WUHU216HW,2013-04-24 23:30:00,
2013-04-24 19:36:00,48.0,41.7,30.03,West,270,4.6,10.5,79,0.00,,,0.19,WUHU216HW,2013-04-24 23:36:00,
2013-04-24 19:42:00,47.6,41.4,30.03,WNW,293,4.4,10.5,79,0.00,,,0.19,WUHU216HW,2013-04-24 23:42:00,
2013-04-24 19:47:00,47.6,41.4,30.04,West,270,6.7,6.7,79,0.00,,,0.19,WUHU216HW,2013-04-24 23:47:00,
2013-04-24 19:52:00,47.3,41.1,30.04,West,270,6.4,9.1,79,0.00,,,0.19,WUHU216HW,2013-04-24 23:52:00,
2013-04-24 19:58:00,47.1,41.2,30.05,NW,315,7.6,9.1,80,0.00,,,0.19,WUHU216HW,2013-04-24 23:58:00,
2013-04-24 20:03:00,46.9,41.1,30.05,NW,315,7.3,7.6,80,0.00,,,0.19,WUHU216HW,2013-04-25 00:03:00,
2013-04-24 20:09:00,46.5,40.8,30.06,NW,315,4.0,7.3,80,0.00,,,0.19,WUHU216HW,2013-04-25 00:09:00,
2013-04-24 20:14:00,46.2,40.7,30.06,NW,315,3.3,7.3,81,0.00,,,0.19,WUHU216HW,2013-04-25 00:14:00,
2013-04-24 20:20:00,45.6,40.2,30.08,West,270,0.0,5.3,81,0.00,,,0.19,WUHU216HW,2013-04-25 00:20:00,
2013-04-24 20:25:00,45.3,39.8,30.08,NW,315,3.3,5.3,81,0.00,,,0.19,WUHU216HW,2013-04-25 00:25:00,
2013-04-24 20:30:00,45.3,40.1,30.08,NE,45,0.0,5.1,82,0.00,,,0.19,WUHU216HW,2013-04-25 00:30:00,
2013-04-24 20:36:00,45.1,39.9,30.09,WNW,293,0.0,6.9,82,0.00,,,0.19,WUHU216HW,2013-04-25 00:36:00,
2013-04-24 20:41:00,44.9,39.8,30.09,NW,315,3.8,6.9,82,0.00,,,0.19,WUHU216HW,2013-04-25 00:41:00,
2013-04-24 20:47:00,44.6,39.7,30.10,NW,315,6.9,6.9,83,0.00,,,0.19,WUHU216HW,2013-04-25 00:47:00,
2013-04-24 20:52:00,44.4,39.5,30.11,NW,315,0.0,6.9,83,0.00,,,0.19,WUHU216HW,2013-04-25 00:52:00,
2013-04-24 20:57:00,44.2,39.3,30.12,NW,315,4.6,7.6,83,0.00,,,0.19,WUHU216HW,2013-04-25 00:57:00,
2013-04-24 21:03:00,43.8,39.3,30.13,North,0,0.0,7.6,84,0.00,,,0.19,WUHU216HW,2013-04-25 01:03:00,
2013-04-24 21:09:00,43.7,39.1,30.13,WNW,293,6.2,7.6,84,0.00,,,0.19,WUHU216HW,2013-04-25 01:09:00,
2013-04-24 21:15:00,43.5,38.9,30.14,NW,315,0.0,6.2,84,0.00,,,0.19,WUHU216HW,2013-04-25 01:15:00,
2013-04-24 21:20:00,43.5,38.9,30.15,NW,315,8.0,8.0,84,0.00,,,0.19,WUHU216HW,2013-04-25 01:20:00,
2013-04-24 21:26:00,43.3,38.8,30.15,WNW,293,0.0,8.0,84,0.00,,,0.19,WUHU216HW,2013-04-25 01:26:00,
2013-04-24 21:31:00,43.1,38.6,30.16,WNW,293,6.9,8.0,84,0.00,,,0.19,WUHU216HW,2013-04-25 01:31:00,
2013-04-24 21:37:00,42.9,38.1,30.16,West,270,4.9,6.9,83,0.00,,,0.19,WUHU216HW,2013-04-25 01:37:00,
2013-04-24 21:42:00,42.9,38.1,30.17,WNW,293,6.2,6.9,83,0.00,,,0.19,WUHU216HW,2013-04-25 01:42:00,
2013-04-24 21:48:00,42.6,37.4,30.17,WNW,293,1.7,6.2,82,0.00,,,0.19,WUHU216HW,2013-04-25 01:48:00,
2013-04-24 21:53:00,42.6,37.4,30.17,WNW,293,0.0,6.2,82,0.00,,,0.19,WUHU216HW,2013-04-25 01:53:00,
2013-04-24 21:58:00,42.6,37.1,30.17,WNW,293,5.3,7.1,81,0.00,,,0.19,WUHU216HW,2013-04-25 01:58:00,
2013-04-24 22:04:00,42.4,36.9,30.18,West,270,0.0,7.1,81,0.00,,,0.19,WUHU216HW,2013-04-25 02:04:00,
2013-04-24 22:09:00,42.0,36.6,30.19,WNW,293,0.0,4.4,81,0.00,,,0.19,WUHU216HW,2013-04-25 02:09:00,
2013-04-24 22:14:00,42.0,36.6,30.19,WNW,293,0.0,4.4,81,0.00,,,0.19,WUHU216HW,2013-04-25 02:14:00,
2013-04-24 22:19:00,42.0,36.6,30.19,WSW,248,1.7,3.3,81,0.00,,,0.19,WUHU216HW,2013-04-25 02:19:00,
2013-04-24 22:25:00,42.0,36.6,30.20,WSW,248,0.0,4.4,81,0.00,,,0.19,WUHU216HW,2013-04-25 02:25:00,
2013-04-24 22:30:00,42.0,36.6,30.20,West,270,8.2,8.2,81,0.00,,,0.19,WUHU216HW,2013-04-25 02:30:00,
2013-04-24 22:35:00,42.0,36.3,30.20,West,270,0.0,8.2,80,0.00,,,0.19,WUHU216HW,2013-04-25 02:35:00,
2013-04-24 22:40:00,42.0,36.3,30.20,WNW,293,0.0,3.8,80,0.00,,,0.19,WUHU216HW,2013-04-25 02:40:00,
2013-04-24 22:45:00,42.0,36.3,30.20,South,180,4.6,4.6,80,0.00,,,0.19,WUHU216HW,2013-04-25 02:45:00,
2013-04-24 22:50:00,42.0,35.9,30.20,WNW,293,0.0,6.4,79,0.00,,,0.19,WUHU216HW,2013-04-25 02:50:00,
2013-04-24 22:55:00,41.9,35.8,30.21,WSW,248,4.0,6.4,79,0.00,,,0.19,WUHU216HW,2013-04-25 02:55:00,
2013-04-24 23:01:00,41.9,35.8,30.21,West,270,0.0,4.0,79,0.00,,,0.19,WUHU216HW,2013-04-25 03:01:00,
2013-04-24 23:06:00,41.7,35.6,30.21,West,270,0.0,2.4,79,0.00,,,0.19,WUHU216HW,2013-04-25 03:06:00,
2013-04-24 23:12:00,41.5,35.4,30.21,West,270,0.0,0.0,79,0.00,,,0.19,WUHU216HW,2013-04-25 03:12:00,
2013-04-24 23:17:00,41.5,35.4,30.21,WNW,293,5.1,5.1,79,0.00,,,0.19,WUHU216HW,2013-04-25 03:17:00,
2013-04-24 23:22:00,41.5,35.4,30.21,NW,315,3.8,5.1,79,0.00,,,0.19,WUHU216HW,2013-04-25 03:22:00,
2013-04-24 23:28:00,41.5,35.4,30.21,NW,315,2.0,3.8,79,0.00,,,0.19,WUHU216HW,2013-04-25 03:28:00,
2013-04-24 23:33:00,41.5,35.4,30.21,West,270,0.0,3.8,79,0.00,,,0.19,WUHU216HW,2013-04-25 03:33:00,
2013-04-24 23:39:00,41.5,35.4,30.21,WNW,293,0.0,2.6,79,0.00,,,0.19,WUHU216HW,2013-04-25 03:39:00,
2013-04-24 23:45:00,41.5,35.4,30.21,SSW,203,3.8,3.8,79,0.00,,,0.19,WUHU216HW,2013-04-25 03:45:00,
2013-04-24 23:50:00,41.5,35.4,30.21,WSW,248,0.0,4.2,79,0.00,,,0.19,WUHU216HW,2013-04-25 03:50:00,
2013-04-24 23:56:00,41.5,35.4,30.21,SSW,203,0.0,4.2,79,0.00,,,0.19,WUHU216HW,2013-04-25 03:56:00,